Regional Weather Roundup
Issued by NWS

Home | Current Version | Previous Version | Graphics & Text | Print | Product List | Glossary On
Versions: 1 2 3 4 5 6 7 8 9 10 11 12 13 14 15 16 17 18 19 20 21 22 23 24 25 26 27 28 29 30 31 32 33 34 35 36 37 38 39 40 41 42 43 44 45 46 47 48 49 50
647
ASUS43 KLOT 210004
RWRIL

ILLINOIS REGIONAL WEATHER ROUNDUP
NATIONAL WEATHER SERVICE CHICAGO/ROMEOVILLE IL
700 PM CDT FRI OCT 20 2017

NOTE: "FAIR" INDICATES FEW OR NO CLOUDS BELOW 12,000 FEET WITH NO
SIGNIFICANT WEATHER AND/OR OBSTRUCTIONS TO VISIBILITY.

* THESE STATIONS ARE NOT UNDER NWS QUALITY CONTROL. THEY ALSO MAY NOT
  REPORT WEATHER SUCH AS PRECIPITATION OR FOG.

ILZ001-002-007-009-015-016-024-210100-
NORTHWEST ILLINOIS

CITY           SKY/WX    TMP DP  RH WIND       PRES   REMARKS
MOLINE         PTCLDY    65  47  52 SE6       29.96F
6HR MIN TEMP:  64; 6HR MAX TEMP:  79;

STERLING*      CLOUDY    67  50  54 SE3         N/A
SAVANNA*       PTCLDY    63  49  60 SE7       29.97F
$$

ILZ003-004-008-010-011-017-018-210100-
NORTH CENTRAL ILLINOIS

CITY           SKY/WX    TMP DP  RH WIND       PRES   REMARKS
ROCKFORD       CLOUDY    68  49  50 S10       30.02R
6HR MIN TEMP:  68; 6HR MAX TEMP:  79;

FREEPORT*      PTCLDY    64  48  57 S7        30.01S
ROCHELLE*      PTCLDY    65  49  56 SE7       30.02S
DE KALB*       CLOUDY    65  51  59 SE9       30.04S
PERU*          PTCLDY    69  45  42 S10G16    30.03S
$$

ILZ005-006-012>014-019>023-210100-
NORTHEAST ILLINOIS

CITY           SKY/WX    TMP DP  RH WIND       PRES   REMARKS
CHICAGO-OHARE  MOCLDY    70  50  49 S9        30.04S
6HR MIN TEMP:  70; 6HR MAX TEMP:  78;

CHICAGO-MIDWAY CLOUDY    72  50  45 S10       30.06S
6HR MIN TEMP:  72; 6HR MAX TEMP:  80;

AURORA         CLOUDY    68  50  52 S9        30.05R
6HR MIN TEMP:  67; 6HR MAX TEMP:  79;

LANSING*       CLOUDY    64  53  66 S8        30.08S
JOLIET*        CLOUDY    70  51  51 SE5       30.06S
WAUKEGAN       CLOUDY    68  51  54 S7        30.03S
6HR MIN TEMP:  67; 6HR MAX TEMP:  78;

DUPAGE AIRPORT CLOUDY    66  51  58 S8        30.04S
6HR MIN TEMP:  66; 6HR MAX TEMP:  78;

KANKAKEE*      PTCLDY    68  47  47 SE7       30.09S
WHEELING       PTCLDY    68  52  56 S8        30.06R
6HR MIN TEMP:  68; 6HR MAX TEMP:  79;

MORRIS*        CLOUDY    67  48  50 S6        30.04S
ROMEOVILLE*    CLOUDY    65  51  60 S8        30.06S
NORTHERLY ISL    N/A     70  48  45 S7          N/A
$$

LMZ740>746-210100-
SOUTHERN LAKE MICHIGAN

STATION/POSITION SKY/WX   TEMP    WIND        PRES    VSBY  WAVE
                          AIR SEA DIR/SP/G                  HT/PER
                          (F)     (DEG/KT/KT) (MB)    (MI)  (FT/S)
SOUTHERN BUOY              65 61  150/ 14/ 14 1017.6          2/ 4
WILMETTE HARBOR            65 60  160/  8/ 10   N/A           1/ 2
HARRISON CRIB              74     170/ 16/ 16   N/A
BURNHAM HARBOR             70     160/  7/  9   N/A
CALUMET HARBOR             72     160/  5/  8 1017.4F
BURNS HARBOR               71     180/  8/ 14 1019.0S
MICHIGAN CITY              71     150/  9/ 10   N/A
MICHIGAN CITY 6N           64 59  160/  6/  8   N/A           1
ST. JOSEPH                 64 59  190/  6/  8 1018.9R         1
$$

ILZ025>027-034>036-040-047-049-050-058-095>099-210100-
WEST-CENTRAL ILLINOIS

CITY           SKY/WX    TMP DP  RH WIND       PRES   REMARKS
QUINCY         CLOUDY    65  51  60 SE10      29.98F
GALESBURG*     CLOUDY    72  53  51 S6        30.00S
MACOMB*        PTCLDY    64  48  56 S8        30.02R
JACKSONVILLE*  CLOUDY    67  47  48 SE10      30.02F
PITTSFIELD*    CLOUDY    67  51  56 SE8       30.02F
$$

ILZ028>032-037-038-041>044-048-051>054-059>061-210100-
CENTRAL ILLINOIS

CITY           SKY/WX    TMP DP  RH WIND       PRES   REMARKS
PONTIAC        PTCLDY    67  46  46 SE8       30.07R
BLOOMINGTON    MOCLDY    66  46  48 S13       30.08R
DECATUR        PTCLDY    67  47  48 S9        30.08S
PEORIA         CLOUDY    69  45  41 S9        30.02S
6HR MIN TEMP:  68; 6HR MAX TEMP:  78;

LACON*         CLOUDY    69  45  41 S8        30.02S
LINCOLN*       CLOUDY    65  48  55 S6        30.05S
SPRINGFIELD    CLOUDY    71  48  43 S12       30.05S
6HR MIN TEMP:  70; 6HR MAX TEMP:  80;

TAYLORVILLE    PTCLDY    65  47  52 SE8       30.08R
6HR MIN TEMP:  65; 6HR MAX TEMP:  79;

$$

ILZ033-039-045-046-055>057-062-063-210100-
EAST-CENTRAL ILLINOIS

CITY           SKY/WX    TMP DP  RH WIND       PRES   REMARKS
CHAMPAIGN      PTCLDY    66  47  50 SE9       30.10S
DANVILLE*      CLOUDY    65  48  55 SE6       30.09S
RANTOUL*       PTCLDY    66  49  54 SE5       30.10S
MATTOON        CLOUDY    67  51  56 S8        30.10S
PARIS*         PTCLDY    59  50  72 SE7       30.13S
$$

ILZ079-100>102-210100-
SOUTHWEST ILLINOIS

CITY           SKY/WX    TMP DP  RH WIND       PRES   REMARKS
ALTON          MOCLDY    64  52  63 SE6       30.06F
BELLEVILLE     PTCLDY    68  49  49 SE7       30.09F
CAHOKIA*       CLOUDY    71  49  45 S7        30.06R
SPARTA*        CLOUDY    67  52  58 SE6       30.10S
$$

ILZ064>066-069>071-074>076-080>082-084>086-088>090-092>094-210100-
SOUTH-CENTRAL ILLINOIS

CITY           SKY/WX    TMP DP  RH WIND       PRES   REMARKS
CARBONDALE     CLOUDY    64  54  69 SE9       30.10F
6HR MIN TEMP:  63; 6HR MAX TEMP:  77;

CAIRO*           N/A     62  54  75 SE5       30.12S HAZE
EFFINGHAM*     PTCLDY    67  50  54 SE7       30.12S
MARION         PTCLDY    68  52  56 SE9       30.12F
MT. VERNON     CLOUDY    64  53  67 S5        30.12R
CENTRALIA*     PTCLDY    66  52  62 SE6       30.10S
SALEM*         CLOUDY    69  49  49 SE3       30.10S
METROPOLIS*    PTCLDY    65  53  65 E3        30.13F
$$

ILZ067-068-072-073-078-083-087-091-210100-
SOUTHEAST ILLINOIS

CITY           SKY/WX    TMP DP  RH WIND       PRES   REMARKS
LAWRENCEVILLE  CLOUDY    64  52  64 SE9       30.14S
FLORA*         CLOUDY    63  50  62 SE7       30.12S
FAIRFIELD*     PTCLDY    66  47  50 CALM      30.12S
HARRISBURG*    CLOUDY    65  48  53 S3        30.14R
ROBINSON*      PTCLDY    61  50  65 SE6       30.14S
CARMI*         CLOUDY    59  49  69 SE6       30.13S
$$

ABBREVIATIONS USED IN REMARKS
   TC - TEMPERATURE IN CELSIUS
  WCI - WIND CHILL INDEX
   HX - HEAT INDEX
  VSB - VISIBILITY
$$





USA.gov is the U.S. government's official web portal to all federal, state and local government web resources and services.